Time,TemperatureF,DewpointF,PressureIn,WindDirection,WindDirectionDegrees,WindSpeedMPH,WindSpeedGustMPH,Humidity,HourlyPrecipIn,Conditions,Clouds,dailyrainin,SoftwareType,DateUTC
2013-09-20 00:04:00,56.5,55.1,29.86,SSW,202,0.0,-999.0,95,-99.99,,,0.00,Acu-Link.com,2013-09-20 04:04:00,
2013-09-20 00:19:00,55.9,54.8,29.85,SSW,202,0.0,-999.0,96,-99.99,,,0.00,Acu-Link.com,2013-09-20 04:19:00,
2013-09-20 00:34:00,55.4,54.6,29.86,East,90,0.0,-999.0,97,-99.99,,,0.00,Acu-Link.com,2013-09-20 04:34:00,
2013-09-20 00:50:00,54.9,54.1,29.86,East,90,2.2,-999.0,97,-99.99,,,0.00,Acu-Link.com,2013-09-20 04:50:00,
2013-09-20 01:05:00,54.3,53.5,29.86,East,90,0.0,-999.0,97,-99.99,,,0.00,Acu-Link.com,2013-09-20 05:05:00,
2013-09-20 01:21:00,54.1,53.3,29.86,East,90,3.2,-999.0,97,-99.99,,,0.00,Acu-Link.com,2013-09-20 05:21:00,
2013-09-20 01:36:00,53.6,53.0,29.86,East,90,0.0,-999.0,98,-99.99,,,0.00,Acu-Link.com,2013-09-20 05:36:00,
2013-09-20 01:51:00,54.0,53.4,29.86,East,90,0.0,-999.0,98,-99.99,,,0.00,Acu-Link.com,2013-09-20 05:51:00,
2013-09-20 02:07:00,54.0,53.4,29.86,East,90,0.0,-999.0,98,-99.99,,,0.00,Acu-Link.com,2013-09-20 06:07:00,
2013-09-20 02:22:00,53.4,52.8,29.86,East,90,0.0,-999.0,98,-99.99,,,0.00,Acu-Link.com,2013-09-20 06:22:00,
2013-09-20 02:37:00,53.6,53.0,29.86,East,90,0.0,-999.0,98,-99.99,,,0.00,Acu-Link.com,2013-09-20 06:37:00,
2013-09-20 02:53:00,53.2,52.6,29.85,East,90,0.0,-999.0,98,-99.99,,,0.00,Acu-Link.com,2013-09-20 06:53:00,
2013-09-20 03:08:00,53.2,52.9,29.85,ESE,112,2.7,-999.0,99,-99.99,,,0.00,Acu-Link.com,2013-09-20 07:08:00,
2013-09-20 03:23:00,53.1,52.8,29.85,East,90,2.7,-999.0,99,-99.99,,,0.00,Acu-Link.com,2013-09-20 07:23:00,
2013-09-20 03:38:00,53.2,52.9,29.85,ENE,67,3.2,-999.0,99,-99.99,,,0.00,Acu-Link.com,2013-09-20 07:38:00,
2013-09-20 03:53:00,53.1,52.8,29.85,ENE,67,3.7,-999.0,99,-99.99,,,0.00,Acu-Link.com,2013-09-20 07:53:00,
2013-09-20 04:10:00,53.2,52.6,29.85,ENE,67,3.2,-999.0,98,-99.99,,,0.00,Acu-Link.com,2013-09-20 08:10:00,
2013-09-20 04:26:00,53.2,52.6,29.85,ENE,67,3.2,-999.0,98,-99.99,,,0.00,Acu-Link.com,2013-09-20 08:26:00,
2013-09-20 04:42:00,53.2,52.6,29.85,ENE,67,2.2,-999.0,98,-99.99,,,0.00,Acu-Link.com,2013-09-20 08:42:00,
2013-09-20 04:57:00,52.9,52.4,29.85,ENE,67,2.7,-999.0,98,-99.99,,,0.00,Acu-Link.com,2013-09-20 08:57:00,
2013-09-20 05:13:00,53.2,52.6,29.85,ENE,67,2.7,-999.0,98,-99.99,,,0.00,Acu-Link.com,2013-09-20 09:13:00,
2013-09-20 05:28:00,53.1,52.5,29.85,ENE,67,1.7,-999.0,98,-99.99,,,0.00,Acu-Link.com,2013-09-20 09:28:00,
2013-09-20 05:43:00,52.5,52.0,29.85,ENE,67,0.0,-999.0,98,-99.99,,,0.00,Acu-Link.com,2013-09-20 09:43:00,
2013-09-20 05:58:00,51.6,51.1,29.88,ENE,67,0.0,-999.0,98,-99.99,,,0.00,Acu-Link.com,2013-09-20 09:58:00,
2013-09-20 06:13:00,51.4,50.9,29.88,ENE,67,2.2,-999.0,98,-99.99,,,0.00,Acu-Link.com,2013-09-20 10:13:00,
2013-09-20 06:29:00,51.6,51.3,29.88,ENE,67,0.0,-999.0,99,-99.99,,,0.00,Acu-Link.com,2013-09-20 10:29:00,
2013-09-20 06:44:00,53.1,52.8,29.87,ENE,67,0.0,-999.0,99,-99.99,,,0.00,Acu-Link.com,2013-09-20 10:44:00,
2013-09-20 06:59:00,54.7,54.1,29.89,ENE,67,2.2,-999.0,98,-99.99,,,0.00,Acu-Link.com,2013-09-20 10:59:00,
2013-09-20 07:14:00,54.9,53.5,29.88,ENE,67,1.1,-999.0,95,-99.99,,,0.00,Acu-Link.com,2013-09-20 11:14:00,
2013-09-20 07:30:00,58.1,55.2,29.89,ENE,67,0.0,-999.0,90,-99.99,,,0.00,Acu-Link.com,2013-09-20 11:30:00,
2013-09-20 07:45:00,60.1,55.2,29.89,ENE,67,2.7,-999.0,84,-99.99,,,0.00,Acu-Link.com,2013-09-20 11:45:00,
2013-09-20 08:00:00,60.8,55.9,29.90,ENE,67,2.7,-999.0,84,-99.99,,,0.00,Acu-Link.com,2013-09-20 12:00:00,
2013-09-20 08:15:00,62.1,56.5,29.90,ENE,67,1.7,-999.0,82,-99.99,,,0.00,Acu-Link.com,2013-09-20 12:15:00,
2013-09-20 08:31:00,64.6,57.6,29.88,ENE,67,2.2,-999.0,78,-99.99,,,0.00,Acu-Link.com,2013-09-20 12:31:00,
2013-09-20 08:46:00,63.9,57.3,29.88,ENE,67,2.2,-999.0,79,-99.99,,,0.00,Acu-Link.com,2013-09-20 12:46:00,
2013-09-20 09:01:00,63.5,56.9,29.87,East,90,2.2,-999.0,79,-99.99,,,0.00,Acu-Link.com,2013-09-20 13:01:00,
2013-09-20 09:16:00,67.5,57.8,29.88,ENE,67,2.7,-999.0,71,-99.99,,,0.00,Acu-Link.com,2013-09-20 13:16:00,
2013-09-20 09:32:00,67.5,58.5,29.88,East,90,0.0,-999.0,73,-99.99,,,0.00,Acu-Link.com,2013-09-20 13:32:00,
2013-09-20 09:47:00,69.4,58.8,29.87,East,90,1.7,-999.0,69,-99.99,,,0.00,Acu-Link.com,2013-09-20 13:47:00,
2013-09-20 10:02:00,70.2,59.5,29.87,East,90,1.7,-999.0,69,-99.99,,,0.00,Acu-Link.com,2013-09-20 14:02:00,
2013-09-20 10:18:00,68.9,59.1,29.86,East,90,1.7,-999.0,71,-99.99,,,0.00,Acu-Link.com,2013-09-20 14:18:00,
2013-09-20 10:33:00,70.5,58.6,29.85,East,90,0.0,-999.0,66,-99.99,,,0.00,Acu-Link.com,2013-09-20 14:33:00,
2013-09-20 10:48:00,73.6,58.8,29.85,East,90,3.2,-999.0,60,-99.99,,,0.00,Acu-Link.com,2013-09-20 14:48:00,
2013-09-20 11:03:00,69.8,58.3,29.87,East,90,1.7,-999.0,67,-99.99,,,0.00,Acu-Link.com,2013-09-20 15:03:00,
2013-09-20 11:19:00,72.0,58.3,29.85,East,90,1.7,-999.0,62,-99.99,,,0.00,Acu-Link.com,2013-09-20 15:19:00,
2013-09-20 11:34:00,73.8,59.0,29.85,East,90,0.0,-999.0,60,-99.99,,,0.00,Acu-Link.com,2013-09-20 15:34:00,
2013-09-20 11:50:00,71.2,57.5,29.86,East,90,0.0,-999.0,62,-99.99,,,0.00,Acu-Link.com,2013-09-20 15:50:00,
2013-09-20 12:05:00,68.0,57.0,29.85,East,90,3.2,-999.0,68,-99.99,,,0.00,Acu-Link.com,2013-09-20 16:05:00,
2013-09-20 12:20:00,68.4,56.2,29.86,East,90,3.7,-999.0,65,-99.99,,,0.00,Acu-Link.com,2013-09-20 16:20:00,
2013-09-20 12:35:00,64.0,57.0,29.85,ESE,112,5.8,-999.0,78,-99.99,,,0.00,Acu-Link.com,2013-09-20 16:35:00,
2013-09-20 12:50:00,64.2,57.9,29.86,SE,135,4.7,-999.0,80,-99.99,,,0.00,Acu-Link.com,2013-09-20 16:50:00,
2013-09-20 13:06:00,64.6,58.3,29.86,SSE,157,5.8,-999.0,80,-99.99,,,0.00,Acu-Link.com,2013-09-20 17:06:00,
2013-09-20 13:21:00,64.8,58.5,29.86,South,180,4.7,-999.0,80,-99.99,,,0.00,Acu-Link.com,2013-09-20 17:21:00,
2013-09-20 13:36:00,64.6,57.9,29.85,South,180,5.8,-999.0,79,-99.99,,,0.00,Acu-Link.com,2013-09-20 17:36:00,
2013-09-20 13:51:00,64.4,57.7,29.85,South,180,5.8,-999.0,79,-99.99,,,0.00,Acu-Link.com,2013-09-20 17:51:00,
2013-09-20 14:06:00,65.8,56.1,29.86,SSE,157,6.3,-999.0,71,-99.99,,,0.00,Acu-Link.com,2013-09-20 18:06:00,
2013-09-20 14:22:00,66.0,55.5,29.86,SSE,157,6.3,-999.0,69,-99.99,,,0.00,Acu-Link.com,2013-09-20 18:22:00,
2013-09-20 14:37:00,65.7,56.0,29.84,SSE,157,6.8,-999.0,71,-99.99,,,0.00,Acu-Link.com,2013-09-20 18:37:00,
2013-09-20 14:52:00,66.0,56.7,29.84,SSE,157,4.2,-999.0,72,-99.99,,,0.00,Acu-Link.com,2013-09-20 18:52:00,
2013-09-20 15:07:00,66.0,56.3,29.85,SSE,157,6.8,-999.0,71,-99.99,,,0.00,Acu-Link.com,2013-09-20 19:07:00,
2013-09-20 15:22:00,66.9,57.2,29.84,SSE,157,4.7,-999.0,71,-99.99,,,0.00,Acu-Link.com,2013-09-20 19:22:00,
2013-09-20 15:37:00,65.5,56.2,29.86,SSE,157,4.7,-999.0,72,-99.99,,,0.00,Acu-Link.com,2013-09-20 19:37:00,
2013-09-20 16:08:00,65.8,56.9,29.84,SSE,157,3.7,-999.0,73,-99.99,,,0.00,Acu-Link.com,2013-09-20 20:08:00,
2013-09-20 16:24:00,64.8,56.7,29.84,SSE,157,6.3,-999.0,75,-99.99,,,0.00,Acu-Link.com,2013-09-20 20:24:00,
2013-09-20 16:39:00,64.6,56.9,29.84,SSE,157,5.3,-999.0,76,-99.99,,,0.00,Acu-Link.com,2013-09-20 20:39:00,
2013-09-20 16:54:00,64.4,56.7,29.84,SSE,157,3.2,-999.0,76,-99.99,,,0.00,Acu-Link.com,2013-09-20 20:54:00,
2013-09-20 17:09:00,66.2,58.0,29.84,SSE,157,2.7,-999.0,75,-99.99,,,0.00,Acu-Link.com,2013-09-20 21:09:00,
2013-09-20 17:24:00,64.8,58.1,29.84,SSE,157,2.2,-999.0,79,-99.99,,,0.00,Acu-Link.com,2013-09-20 21:24:00,
2013-09-20 17:40:00,63.9,56.9,29.85,SSE,157,2.7,-999.0,78,-99.99,,,0.00,Acu-Link.com,2013-09-20 21:40:00,
2013-09-20 17:55:00,64.6,57.2,29.85,SSE,157,3.7,-999.0,77,-99.99,,,0.00,Acu-Link.com,2013-09-20 21:55:00,
2013-09-20 18:10:00,61.3,55.4,29.84,SSE,157,4.7,-999.0,81,-99.99,,,0.00,Acu-Link.com,2013-09-20 22:10:00,
2013-09-20 18:26:00,60.8,55.9,29.85,SSE,157,2.7,-999.0,84,-99.99,,,0.00,Acu-Link.com,2013-09-20 22:26:00,
2013-09-20 18:41:00,60.3,55.8,29.86,SSE,157,3.2,-999.0,85,-99.99,,,0.00,Acu-Link.com,2013-09-20 22:41:00,
2013-09-20 18:56:00,59.7,56.1,29.84,SSE,157,3.7,-999.0,88,-99.99,,,0.00,Acu-Link.com,2013-09-20 22:56:00,
2013-09-20 19:11:00,59.2,56.0,29.84,SE,135,2.7,-999.0,89,-99.99,,,0.00,Acu-Link.com,2013-09-20 23:11:00,
2013-09-20 19:27:00,58.8,56.5,29.85,SE,135,3.2,-999.0,92,-99.99,,,0.00,Acu-Link.com,2013-09-20 23:27:00,
2013-09-20 19:42:00,58.6,56.6,29.86,SE,135,3.7,-999.0,93,-99.99,,,0.00,Acu-Link.com,2013-09-20 23:42:00,
2013-09-20 19:57:00,58.8,56.8,29.88,SSE,157,4.2,-999.0,93,-99.99,,,0.00,Acu-Link.com,2013-09-20 23:57:00,
2013-09-20 20:13:00,58.6,56.9,29.86,SE,135,3.7,-999.0,94,-99.99,,,0.00,Acu-Link.com,2013-09-21 00:13:00,
2013-09-20 20:28:00,58.6,57.2,29.86,SE,135,4.2,-999.0,95,-99.99,,,0.00,Acu-Link.com,2013-09-21 00:28:00,
2013-09-20 20:43:00,58.5,57.4,29.86,SE,135,3.2,-999.0,96,-99.99,,,0.00,Acu-Link.com,2013-09-21 00:43:00,
2013-09-20 20:58:00,58.6,57.5,29.86,SE,135,5.3,-999.0,96,-99.99,,,0.00,Acu-Link.com,2013-09-21 00:58:00,
2013-09-20 21:14:00,58.6,57.8,29.87,ESE,112,3.7,-999.0,97,-99.99,,,0.00,Acu-Link.com,2013-09-21 01:14:00,
2013-09-20 21:29:00,58.5,57.7,29.86,ESE,112,3.7,-999.0,97,-99.99,,,0.00,Acu-Link.com,2013-09-21 01:29:00,
2013-09-20 21:44:00,58.3,57.7,29.86,ESE,112,4.2,-999.0,98,-99.99,,,0.00,Acu-Link.com,2013-09-21 01:44:00,
2013-09-20 21:59:00,58.3,57.7,29.86,ESE,112,3.7,-999.0,98,-99.99,,,0.00,Acu-Link.com,2013-09-21 01:59:00,
2013-09-20 22:15:00,58.5,57.9,29.86,ESE,112,3.2,-999.0,98,-99.99,,,0.00,Acu-Link.com,2013-09-21 02:15:00,
2013-09-20 22:30:00,58.6,58.3,29.85,SE,135,4.7,-999.0,99,-99.99,,,0.00,Acu-Link.com,2013-09-21 02:30:00,
2013-09-20 22:45:00,59.0,58.7,29.85,SSE,157,4.2,-999.0,99,-99.99,,,0.00,Acu-Link.com,2013-09-21 02:45:00,
2013-09-20 23:00:00,59.0,58.7,29.86,SSE,157,3.7,-999.0,99,-99.99,,,0.00,Acu-Link.com,2013-09-21 03:00:00,
2013-09-20 23:15:00,58.8,58.5,29.84,SSE,157,3.2,-999.0,99,-99.99,,,0.00,Acu-Link.com,2013-09-21 03:15:00,
2013-09-20 23:31:00,58.8,58.5,29.85,SSE,157,2.7,-999.0,99,-99.99,,,0.00,Acu-Link.com,2013-09-21 03:31:00,
2013-09-20 23:46:00,58.5,58.2,29.84,SSE,157,2.7,-999.0,99,-99.99,,,0.00,Acu-Link.com,2013-09-21 03:46:00,